GW6594 Weather Reports


time (UTC)temp
F
wind
direction
speed
knots
gust
knots
rain 1hr
in
rain 24hr
in
rain mn
in
humidity
%
barometer
mb
20260508090116 40 269 5.2 9.6 0.00 0.00 0.00 68 1005.0
20260508084600 40 298 7.0 11.3 0.00 0.00 0.00 68 1004.9
20260508083104 40 293 6.1 10.4 0.00 0.00 0.00 68 1004.9
20260508081610 40 258 5.2 8.7 0.00 0.00 0.00 67 1004.9
20260508074600 41 284 6.1 10.4 0.00 0.01 0.00 66 1004.7
20260508073100 41 267 7.0 11.3 0.00 0.01 0.00 65 1004.7
20260508071603 41 294 5.2 10.4 0.00 0.01 0.00 65 1004.6
20260508070101 41 276 6.1 11.3 0.00 0.01 0.00 65 1004.6
20260508064559 41 275 6.1 11.3 0.00 0.02 0.00 65 1004.6
20260508063107 41 281 6.1 10.4 0.00 0.02 0.00 64 1004.8
20260508061559 41 279 5.2 12.2 0.00 0.02 0.00 64 1004.8
20260508060059 41 300 6.1 11.3 0.00 0.02 0.00 64 1004.9
20260508054600 40 267 4.3 8.7 0.00 0.19 0.00 64 1005.1
20260508053108 40 284 4.3 7.8 0.00 0.19 0.00 63 1005.1
20260508051600 41 296 2.6 4.3 0.00 0.19 0.00 62 1005.3
20260508050103 41 306 3.5 7.0 0.00 0.19 0.00 61 1005.3
20260508044602 42 279 4.3 8.7 0.00 0.20 0.00 59 1005.4
20260508043105 43 296 4.3 8.7 0.00 0.20 0.00 58 1005.4
20260508041605 43 309 4.3 9.6 0.00 0.20 0.00 58 1005.5
20260508040104 43 304 5.2 9.6 0.00 0.20 0.00 58 1005.4
20260508034612 44 286 6.1 9.6 0.00 0.20 0.20 57 1005.6
20260508033102 44 300 5.2 10.4 0.00 0.20 0.20 56 1005.7
20260508031559 45 286 5.2 12.2 0.00 0.20 0.20 55 1005.6
20260508024602 45 295 7.0 12.2 0.00 0.24 0.20 55 1005.6
20260508023100 46 304 8.7 15.6 0.00 0.24 0.20 54 1005.4
20260508021602 46 308 8.7 13.9 0.00 0.24 0.20 53 1005.5
20260508020105 47 289 8.7 14.8 0.00 0.24 0.20 53 1005.4
20260508014559 47 331 9.6 16.5 0.00 0.40 0.20 53 1005.6
20260508013102 48 288 9.6 14.8 0.00 0.40 0.20 53 1005.6
20260508011604 48 284 9.6 16.5 0.00 0.40 0.20 53 1005.6
20260508010058 49 306 10.4 16.5 0.00 0.40 0.20 53 1005.4
20260508004558 50 325 8.7 15.6 0.00 0.57 0.20 53 1005.3
20260508003059 51 339 9.6 17.4 0.00 0.57 0.20 53 1005.0
20260508001624 51 291 8.7 16.5 0.00 0.57 0.20 57 1004.6
20260508000058 50 314 7.8 11.3 0.00 0.57 0.20 68 1004.3
20260507234558 51 261 6.1 10.4 0.00 0.68 0.20 71 1004.0
20260507233057 51 228 3.5 6.1 0.00 0.68 0.20 73 1003.7
20260507231559 51 232 3.5 7.8 0.00 0.68 0.20 72 1003.5
20260507230058 51 238 4.3 7.8 0.00 0.68 0.20 72 1003.3
20260507224601 52 215 4.3 7.0 0.00 0.71 0.20 72 1003.0
20260507223058 52 211 4.3 7.8 0.00 0.71 0.20 72 1002.7
20260507221559 51 213 4.3 7.0 0.00 0.71 0.20 72 1002.7
20260507220059 51 222 4.3 11.3 0.00 0.71 0.20 70 1002.8
20260507214604 52 192 6.1 13.0 0.00 0.76 0.20 69 1002.9
20260507213100 52 244 7.0 13.9 0.00 0.76 0.20 66 1002.9
20260507211600 53 188 7.8 15.6 0.00 0.76 0.20 65 1002.9
20260507204601 54 213 8.7 17.4 0.00 0.77 0.20 64 1002.7
20260507203101 57 204 9.6 20.0 0.00 0.77 0.20 63 1002.6
20260507201601 57 198 8.7 19.1 0.00 0.77 0.20 62 1002.6
20260507200110 57 184 9.6 18.2 0.00 0.77 0.20 61 1002.8
20260507194601 59 171 13.0 20.0 0.00 0.77 0.20 60 1002.8
20260507193100 60 198 8.7 16.5 0.00 0.77 0.20 60 1002.9
20260507191600 59 216 9.6 15.6 0.00 0.77 0.20 59 1002.9
20260507190059 60 200 10.4 17.4 0.00 0.77 0.20 60 1002.9
20260507184628 61 205 9.6 15.6 0.00 0.77 0.20 61 1003.1
20260507183059 60 217 10.4 15.6 0.00 0.77 0.20 58 1003.1
20260507181605 62 200 10.4 16.5 0.00 0.77 0.20 59 1003.2
20260507180059 62 207 9.6 14.8 0.00 0.77 0.20 58 1003.4
20260507174609 61 229 10.4 15.6 0.00 0.77 0.20 54 1003.5
20260507173058 60 265 9.6 14.8 0.00 0.77 0.20 56 1003.3
20260507171603 60 217 9.6 14.8 0.00 0.77 0.20 58 1003.3
20260507170059 60 0 2.6 8.7 0.00 0.77 0.20 55 1003.3
20260507164557 58 195 2.6 12.2 0.00 0.77 0.20 59 1003.6
20260507163059 60 290 1.7 12.2 0.00 0.77 0.20 55 1003.7
20260507161558 59 300 3.5 11.3 0.00 0.77 0.20 54 1003.8
20260507160058 58 294 1.7 11.3 0.00 0.77 0.20 62 1003.9
20260507154604 57 49 2.6 6.1 0.00 0.77 0.20 58 1004.1
20260507153102 57 311 4.3 8.7 0.00 0.77 0.20 61 1004.3
20260507151557 56 298 4.3 9.6 0.00 0.77 0.20 64 1004.6
20260507150059 56 228 3.5 7.8 0.00 0.77 0.20 68 1004.6
20260507144600 55 341 4.3 11.3 0.00 0.77 0.20 67 1004.7
20260507143058 55 296 3.5 9.6 0.00 0.77 0.20 71 1004.9
20260507141557 54 336 5.2 11.3 0.00 0.77 0.20 68 1004.9
20260507140104 53 295 4.3 9.6 0.00 0.77 0.20 74 1005.0
20260507134600 53 311 7.0 10.4 0.00 0.77 0.20 75 1004.9
20260507133106 52 307 7.0 11.3 0.00 0.77 0.20 79 1005.5
20260507131603 51 302 5.2 13.9 0.00 0.77 0.20 80 1005.6
20260507130109 50 266 4.3 12.2 0.00 0.77 0.20 84 1005.2
20260507124605 48 296 5.2 13.0 0.00 0.77 0.20 86 1005.3
20260507123059 47 280 7.0 11.3 0.00 0.77 0.20 89 1004.9
20260507121607 46 296 7.8 11.3 0.00 0.77 0.20 90 1004.9
20260507120105 46 277 6.1 11.3 0.00 0.77 0.20 92 1005.2
20260507114614 45 280 2.6 7.0 0.00 0.77 0.20 93 1005.9
20260507113101 45 325 2.6 6.1 0.00 0.77 0.20 93 1005.6
20260507111604 44 273 2.6 7.0 0.00 0.77 0.20 93 1005.7
20260507110109 44 294 3.5 6.1 0.00 0.77 0.20 93 1005.7
20260507104601 44 297 3.5 9.6 0.00 0.77 0.20 93 1005.8
20260507103101 44 312 5.2 10.4 0.00 0.77 0.20 93 1004.7
20260507101605 44 285 5.2 10.4 0.00 0.77 0.20 93 1005.0
20260507100103 44 302 6.1 13.0 0.00 0.77 0.20 94 1004.4
20260507094558 44 275 7.0 13.0 0.00 0.77 0.20 94 1004.6
20260507093059 44 318 7.0 13.0 0.00 0.77 0.20 94 1004.3
20260507091600 44 301 6.1 10.4 0.00 0.77 0.20 94 1004.9